When you browse on this site, cookies collect data to enhance your experience and personalize the content and advertising you see.
Visit our Privacy Policy to learn more. By continuing to use the site, you agree to this use of cookies and data.
  • In United Kingdom
  • List of Countries
  • For 7 days
  • Water Temperature
  • Weather Map
  • Weather Widgets
  • user-avatar
    Login

    Hourly Weather Emona

    Today, 18 October, Friday

    Time Temperature Precipitation Wind Pressure Humidity
    00:00 +14°C° 0 mm 0 mps 763 mmHg 90%
    01:00 +13°C° 0 mm 0 mps 763 mmHg 89%
    02:00 +13°C° 0 mm 0 mps 763 mmHg 88%
    03:00 +13°C° 0 mm 0 mps 763 mmHg 87%
    04:00 +13°C° 0 mm 0 mps 763 mmHg 86%
    05:00 +13°C° 0 mm 0 mps 763 mmHg 86%
    06:00 +14°C° 0 mm 0 mps 763 mmHg 82%
    07:00 +15°C° 0 mm 0 mps 763 mmHg 77%
    08:00 +16°C° 0 mm 0 mps 763 mmHg 75%
    09:00 +18°C° 0 mm 0 mps 763 mmHg 68%
    10:00 +22°C° 0 mm 1 mps 763 mmHg 61%
    11:00 +23°C° 0 mm 1 mps 763 mmHg 54%
    12:00 +24°C° 0 mm 1 mps 763 mmHg 52%
    13:00 +25°C° 0 mm 1 mps 762 mmHg 49%
    14:00 +25°C° 0 mm 2 mps 762 mmHg 47%
    15:00 +24°C° 0 mm 2 mps 762 mmHg 55%
    16:00 +21°C° 0 mm 2 mps 762 mmHg 63%
    17:00 +20°C° 0 mm 2 mps 762 mmHg 72%
    18:00 +19°C° 0 mm 2 mps 762 mmHg 77%
    19:00 +18°C° 0 mm 2 mps 762 mmHg 83%
    20:00 +17°C° 0 mm 2 mps 762 mmHg 88%
    21:00 +16°C° 0 mm 1 mps 762 mmHg 88%
    22:00 +16°C° 0 mm 1 mps 762 mmHg 88%
    23:00 +15°C° 0 mm 0 mps 763 mmHg 87%

    Tomorrow, 19 October, Saturday

    Time Temperature Precipitation Wind Pressure Humidity
    00:00 +15°C° 0 mm 0 mps 763 mmHg 87%
    01:00 +15°C° 0 mm 0 mps 762 mmHg 87%
    02:00 +14°C° 0 mm 0 mps 762 mmHg 87%
    03:00 +14°C° 0 mm 0 mps 762 mmHg 86%
    04:00 +14°C° 0 mm 0 mps 763 mmHg 86%
    05:00 +14°C° 0 mm 0 mps 763 mmHg 86%
    06:00 +15°C° 0 mm 0 mps 763 mmHg 82%
    07:00 +16°C° 0 mm 0 mps 763 mmHg 79%
    08:00 +16°C° 0 mm 0 mps 763 mmHg 75%
    09:00 +20°C° 0 mm 1 mps 763 mmHg 68%
    10:00 +22°C° 0 mm 1 mps 763 mmHg 60%
    11:00 +24°C° 0 mm 1 mps 763 mmHg 53%
    12:00 +25°C° 0 mm 2 mps 763 mmHg 51%
    13:00 +25°C° 0 mm 2 mps 763 mmHg 50%
    14:00 +26°C° 0 mm 2 mps 763 mmHg 48%
    15:00 +24°C° 0 mm 2 mps 763 mmHg 56%
    16:00 +23°C° 0 mm 2 mps 762 mmHg 64%
    17:00 +20°C° 0 mm 3 mps 762 mmHg 71%
    18:00 +19°C° 0 mm 2 mps 763 mmHg 76%
    19:00 +18°C° 0 mm 2 mps 763 mmHg 81%
    20:00 +17°C° 0 mm 2 mps 763 mmHg 85%
    21:00 +17°C° 0 mm 2 mps 764 mmHg 86%
    22:00 +16°C° 0 mm 1 mps 764 mmHg 86%
    23:00 +16°C° 0 mm 1 mps 764 mmHg 87%

    Day after tomorrow, 20 October, Sunday

    Time Temperature Precipitation Wind Pressure Humidity
    00:00 +16°C° 0 mm 1 mps 764 mmHg 87%
    01:00 +15°C° 0 mm 1 mps 764 mmHg 87%
    02:00 +14°C° 0 mm 0 mps 764 mmHg 87%
    03:00 +14°C° 0 mm 0 mps 764 mmHg 86%
    04:00 +14°C° 0 mm 0 mps 764 mmHg 86%
    05:00 +14°C° 0 mm 0 mps 764 mmHg 86%
    06:00 +15°C° 0 mm 0 mps 764 mmHg 83%
    07:00 +15°C° 0 mm 0 mps 764 mmHg 79%
    08:00 +16°C° 0 mm 0 mps 764 mmHg 76%
    09:00 +20°C° 0 mm 1 mps 765 mmHg 68%
    10:00 +22°C° 0 mm 1 mps 765 mmHg 60%
    11:00 +24°C° 0 mm 2 mps 765 mmHg 53%
    12:00 +24°C° 0 mm 2 mps 765 mmHg 52%
    13:00 +25°C° 0 mm 3 mps 764 mmHg 51%
    14:00 +25°C° 0 mm 3 mps 764 mmHg 50%
    15:00 +24°C° 0 mm 3 mps 764 mmHg 57%
    16:00 +21°C° 0 mm 3 mps 764 mmHg 65%
    17:00 +19°C° 0 mm 2 mps 764 mmHg 73%
    18:00 +18°C° 0 mm 2 mps 764 mmHg 78%
    19:00 +17°C° 0 mm 2 mps 764 mmHg 83%
    20:00 +16°C° 0 mm 2 mps 765 mmHg 88%
    21:00 +16°C° 0 mm 1 mps 765 mmHg 88%
    22:00 +16°C° 0 mm 1 mps 765 mmHg 89%
    23:00 +15°C° 0 mm 1 mps 765 mmHg 89%

    21 October, Monday

    Time Temperature Precipitation Wind Pressure Humidity
    00:00 +15°C° 0 mm 1 mps 765 mmHg 89%
    01:00 +14°C° 0 mm 0 mps 765 mmHg 89%
    02:00 +14°C° 0 mm 0 mps 765 mmHg 89%
    03:00 +13°C° 0 mm 0 mps 765 mmHg 88%
    04:00 +13°C° 0 mm 0 mps 765 mmHg 88%
    05:00 +13°C° 0 mm 0 mps 765 mmHg 88%
    06:00 +14°C° 0 mm 0 mps 765 mmHg 84%
    07:00 +15°C° 0 mm 0 mps 765 mmHg 80%
    08:00 +16°C° 0 mm 0 mps 765 mmHg 76%
    09:00 +20°C° 0 mm 1 mps 765 mmHg 68%
    10:00 +21°C° 0 mm 1 mps 765 mmHg 61%
    11:00 +23°C° 0 mm 2 mps 765 mmHg 53%
    12:00 +24°C° 0 mm 2 mps 765 mmHg 52%
    13:00 +24°C° 0 mm 2 mps 765 mmHg 51%
    14:00 +25°C° 0 mm 3 mps 765 mmHg 50%
    15:00 +22°C° 0 mm 3 mps 765 mmHg 57%
    16:00 +21°C° 0 mm 2 mps 764 mmHg 64%
    17:00 +19°C° 0 mm 2 mps 764 mmHg 72%
    18:00 +18°C° 0 mm 2 mps 764 mmHg 76%
    19:00 +18°C° 0 mm 1 mps 765 mmHg 81%
    20:00 +16°C° 0 mm 1 mps 765 mmHg 85%
    21:00 +16°C° 0 mm 1 mps 765 mmHg 86%
    22:00 +16°C° 0 mm 1 mps 765 mmHg 86%
    23:00 +14°C° 0 mm 0 mps 765 mmHg 87%

    22 October, Tuesday

    Time Temperature Precipitation Wind Pressure Humidity
    00:00 +14°C° 0 mm 0 mps 765 mmHg 86%
    01:00 +14°C° 0 mm 0 mps 765 mmHg 86%
    02:00 +14°C° 0 mm 0 mps 765 mmHg 86%
    03:00 +15°C° 0 mm 1 mps 765 mmHg 85%
    04:00 +14°C° 0 mm 1 mps 765 mmHg 85%
    05:00 +14°C° 0 mm 1 mps 765 mmHg 85%
    06:00 +15°C° 0 mm 1 mps 765 mmHg 81%
    07:00 +16°C° 0 mm 1 mps 765 mmHg 77%
    08:00 +18°C° 0 mm 1 mps 765 mmHg 73%
    09:00 +20°C° 0 mm 1 mps 765 mmHg 64%
    10:00 +22°C° 0 mm 1 mps 765 mmHg 55%
    11:00 +24°C° 0 mm 1 mps 765 mmHg 46%
    12:00 +24°C° 0 mm 2 mps 765 mmHg 43%
    13:00 +25°C° 0 mm 2 mps 764 mmHg 41%
    14:00 +26°C° 0 mm 3 mps 764 mmHg 38%
    15:00 +24°C° 0 mm 2 mps 764 mmHg 45%
    16:00 +21°C° 0 mm 2 mps 764 mmHg 52%
    17:00 +20°C° 0 mm 2 mps 764 mmHg 59%
    18:00 +19°C° 0 mm 2 mps 764 mmHg 64%
    19:00 +18°C° 0 mm 2 mps 764 mmHg 69%
    20:00 +16°C° 0 mm 1 mps 764 mmHg 73%
    21:00 +16°C° 0 mm 1 mps 764 mmHg 75%
    22:00 +16°C° 0 mm 1 mps 764 mmHg 77%
    23:00 +15°C° 0 mm 1 mps 765 mmHg 79%

    23 October, Wednesday

    Time Temperature Precipitation Wind Pressure Humidity
    00:00 +15°C° 0 mm 1 mps 765 mmHg 79%
    01:00 +15°C° 0 mm 1 mps 765 mmHg 79%
    02:00 +15°C° 0 mm 1 mps 765 mmHg 79%
    03:00 +15°C° 0 mm 1 mps 765 mmHg 79%
    04:00 +14°C° 0 mm 1 mps 765 mmHg 79%
    05:00 +14°C° 0 mm 1 mps 765 mmHg 79%
    06:00 +15°C° 0 mm 1 mps 765 mmHg 75%
    07:00 +16°C° 0 mm 2 mps 765 mmHg 71%
    08:00 +16°C° 0 mm 2 mps 765 mmHg 68%
    09:00 +18°C° 0 mm 2 mps 765 mmHg 59%
    10:00 +20°C° 0 mm 3 mps 765 mmHg 50%
    11:00 +22°C° 0 mm 4 mps 765 mmHg 41%
    12:00 +23°C° 0 mm 4 mps 765 mmHg 40%
    13:00 +23°C° 0 mm 4 mps 765 mmHg 39%
    14:00 +23°C° 0 mm 5 mps 765 mmHg 38%
    15:00 +22°C° 0 mm 4 mps 765 mmHg 45%
    16:00 +20°C° 0 mm 4 mps 765 mmHg 53%
    17:00 +19°C° 0 mm 3 mps 764 mmHg 60%
    18:00 +18°C° 0 mm 3 mps 765 mmHg 66%
    19:00 +17°C° 0 mm 2 mps 765 mmHg 72%
    20:00 +16°C° 0 mm 2 mps 765 mmHg 78%
    21:00 +16°C° 0 mm 2 mps 765 mmHg 79%
    22:00 +16°C° 0 mm 2 mps 765 mmHg 79%
    23:00 +15°C° 0 mm 2 mps 766 mmHg 80%
    Show more